Location: Breitenfeld
(46.8500°N, 15.6333°E)
Time: 11:00:15
(UTC+00:00)

Tiangong - Pass Details

Date: 02 December 2022
Orbit: 382 x 386 km, 41.5° (Epoch: 07 February)

Event Time Altitude Azimuth Distance (km) Brightness Sun altitude
Rises 16:44:14 0° 231° (SW) 2,244 3.1 -15.4°
Reaches altitude 10° 16:46:36 10° 215° (SW) 1,394 1.4 -15.8°
Maximum altitude 16:49:02 21° 164° (SSE) 929 -0.2 -16.2°
Enters shadow 16:49:49 19° 142° (SE) 988 -0.3 -16.3°
